OE3UKW Weather Reports


Display with metric or nautical units.
time (UTC)temp
F
wind
direction
speed
MPH
gust
MPH
rain 1hr
in
rain 24hr
in
rain mn
in
humidity
%
barometer
mb
20260502231109 45 161 0.0 0.0 0.00 0.00 0.00 58 1020.2
20260502230109 46 161 0.0 0.0 0.00 0.00 0.00 58 1020.4
20260502225109 47 161 0.0 0.0 0.00 0.00 0.00 58 1020.4
20260502224109 47 161 0.0 0.0 0.00 0.00 0.00 58 1020.5
20260502223109 47 160 0.0 0.0 0.00 0.00 0.00 58 1020.5
20260502222109 48 160 0.0 0.0 0.00 0.00 0.00 59 1020.6
20260502221109 48 167 0.0 0.0 0.00 0.00 0.00 59 1020.6
20260502220109 48 167 3.0 7.0 0.00 0.00 0.00 58 1020.7
20260502215113 48 161 4.0 7.0 0.00 0.00 0.00 58 1020.6
20260502214114 48 341 2.0 6.0 0.00 0.00 0.00 58 1020.4
20260502213113 48 348 4.0 5.0 0.00 0.00 0.00 57 1020.3
20260502212113 48 18 4.0 4.0 0.00 0.00 0.00 55 1020.4
20260502211113 49 25 0.0 0.0 0.00 0.00 0.00 54 1020.4
20260502210113 49 25 0.0 0.0 0.00 0.00 0.00 53 1020.5
20260502205113 50 26 0.0 0.0 0.00 0.00 0.00 53 1020.6
20260502204113 50 30 0.0 0.0 0.00 0.00 0.00 52 1020.7
20260502203113 51 34 0.0 0.0 0.00 0.00 0.00 52 1020.7
20260502202113 51 34 0.0 3.0 0.00 0.00 0.00 52 1020.6
20260502201113 51 36 0.0 0.0 0.00 0.00 0.00 50 1020.7
20260502200113 52 49 0.0 0.0 0.00 0.00 0.00 49 1020.7
20260502195113 53 51 0.0 0.0 0.00 0.00 0.00 47 1020.7
20260502194113 54 51 0.0 0.0 0.00 0.00 0.00 47 1020.7
20260502193113 54 51 0.0 0.0 0.00 0.00 0.00 45 1020.6
20260502192113 56 57 0.0 0.0 0.00 0.00 0.00 44 1020.9
20260502191113 57 57 0.0 0.0 0.00 0.00 0.00 43 1020.7
20260502190113 58 57 0.0 0.0 0.00 0.00 0.00 41 1020.7
20260502185113 59 57 0.0 1.0 0.00 0.00 0.00 40 1020.7
20260502184113 61 57 1.0 2.0 0.00 0.00 0.00 37 1020.5
20260502183113 63 57 0.0 3.0 0.00 0.00 0.00 34 1020.4
20260502182113 65 57 0.0 0.0 0.00 0.00 0.00 35 1020.6
20260502181121 66 57 0.0 2.0 0.00 0.00 0.00 33 1020.4
20260502180113 68 57 2.0 3.0 0.00 0.00 0.00 31 1020.6
20260502170112 74 56 0.0 2.0 0.00 0.00 0.00 21 1020.5
20260502164112 75 53 1.0 2.0 0.00 0.00 0.00 19 1020.7
20260502163112 76 29 4.0 6.0 0.00 0.00 0.00 19 1020.7
20260502162112 76 38 2.0 7.0 0.00 0.00 0.00 18 1020.6
20260502161112 76 84 1.0 4.0 0.00 0.00 0.00 18 1020.8
20260502160112 76 69 2.0 6.0 0.00 0.00 0.00 17 1020.9
20260502152112 77 105 0.0 3.0 0.00 0.00 0.00 19 1021.3
20260502151112 77 107 6.0 10.0 0.00 0.00 0.00 19 1021.5
20260502150112 77 15 2.0 5.0 0.00 0.00 0.00 17 1021.6
20260502140112 78 355 3.0 10.0 0.00 0.00 0.00 19 1022.1
20260502130112 76 20 3.0 12.0 0.00 0.00 0.00 20 1022.8
20260502123111 77 342 2.0 9.0 0.00 0.00 0.00 22 1023.2
20260502122111 76 236 6.0 9.0 0.00 0.00 0.00 23 1023.3
20260502121112 76 341 5.0 11.0 0.00 0.00 0.00 22 1023.6
20260502120112 75 34 6.0 11.0 0.00 0.00 0.00 22 1023.7
20260502115112 75 313 3.0 8.0 0.00 0.00 0.00 23 1023.8
20260502114111 74 307 7.0 12.0 0.00 0.00 0.00 23 1023.8
20260502113112 75 340 3.0 9.0 0.00 0.00 0.00 22 1024.1
20260502112111 74 317 5.0 10.0 0.00 0.00 0.00 26 1024.2
20260502111111 74 344 4.0 14.0 0.00 0.00 0.00 24 1024.2
20260502110111 74 24 2.0 6.0 0.00 0.00 0.00 26 1024.3
20260502105111 74 343 2.0 12.0 0.00 0.00 0.00 24 1024.5
20260502104111 73 274 6.0 8.0 0.00 0.00 0.00 24 1024.6
20260502103111 73 39 5.0 10.0 0.00 0.00 0.00 24 1024.7
20260502102112 73 320 6.0 10.0 0.00 0.00 0.00 27 1024.8
20260502101111 72 338 11.0 19.0 0.00 0.00 0.00 26 1025.0
20260502100111 72 15 1.0 12.0 0.00 0.00 0.00 27 1025.1
20260502091111 70 342 5.0 12.0 0.00 0.00 0.00 29 1025.5
20260502090111 69 360 5.0 9.0 0.00 0.00 0.00 30 1025.6
20260502071111 63 31 3.0 7.0 0.00 0.00 0.00 38 1026.2
20260502070111 63 19 4.0 8.0 0.00 0.00 0.00 40 1026.2
20260502065111 62 25 2.0 8.0 0.00 0.00 0.00 42 1026.2
20260502064111 61 321 4.0 6.0 0.00 0.00 0.00 44 1026.3
20260502063111 60 9 4.0 8.0 0.00 0.00 0.00 45 1026.2
20260502062111 59 355 4.0 8.0 0.00 0.00 0.00 47 1026.3
20260502061111 57 324 3.0 5.0 0.00 0.00 0.00 50 1026.4
20260502060111 56 348 4.0 7.0 0.00 0.00 0.00 50 1026.4
20260502055111 55 327 8.0 10.0 0.00 0.00 0.00 51 1026.4
20260502054111 54 315 7.0 10.0 0.00 0.00 0.00 52 1026.3
20260502053111 52 315 4.0 10.0 0.00 0.00 0.00 53 1026.1
20260502052111 51 327 6.0 11.0 0.00 0.00 0.00 55 1026.1
20260502051111 50 313 6.0 10.0 0.00 0.00 0.00 56 1026.3
20260502050111 49 316 4.0 9.0 0.00 0.00 0.00 58 1026.5
20260502045111 47 350 4.0 8.0 0.00 0.00 0.00 60 1026.2
20260502044110 46 325 6.0 8.0 0.00 0.00 0.00 63 1026.2
20260502043110 44 335 4.0 6.0 0.00 0.00 0.00 65 1025.9
20260502042110 42 330 5.0 6.0 0.00 0.00 0.00 65 1025.9
20260502041110 42 360 1.0 3.0 0.00 0.00 0.00 61 1026.0
20260502040110 43 360 1.0 3.0 0.00 0.00 0.00 60 1025.8
20260502035111 44 339 2.0 4.0 0.00 0.00 0.00 59 1025.8
20260502034111 44 339 2.0 3.0 0.00 0.00 0.00 58 1025.8
20260502033110 45 340 0.0 0.0 0.00 0.00 0.00 58 1025.9
20260502032110 46 340 0.0 3.0 0.00 0.00 0.00 59 1025.9
20260502031110 46 339 3.0 4.0 0.00 0.00 0.00 59 1025.9
20260502030110 47 340 5.0 6.0 0.00 0.00 0.00 59 1025.7
20260502025110 46 334 6.0 10.0 0.00 0.00 0.00 59 1025.8
20260502024111 46 332 9.0 10.0 0.00 0.00 0.00 60 1025.9
20260502023110 46 333 8.0 10.0 0.00 0.00 0.00 61 1025.8
20260502022110 45 334 4.0 8.0 0.00 0.00 0.00 61 1025.9
20260502021110 45 312 5.0 8.0 0.00 0.00 0.00 61 1025.8
20260502020110 46 325 3.0 5.0 0.00 0.00 0.00 60 1025.7
20260502015110 46 305 4.0 6.0 0.00 0.00 0.00 59 1026.0
20260502014110 46 360 5.0 6.0 0.00 0.00 0.00 58 1026.1
20260502013110 47 360 3.0 5.0 0.00 0.00 0.00 58 1026.0
20260502012110 47 355 5.0 5.0 0.00 0.00 0.00 58 1026.0
20260502011110 47 345 7.0 9.0 0.00 0.00 0.00 58 1026.0
20260502010110 47 336 7.0 8.0 0.00 0.00 0.00 59 1026.0
20260502005113 47 331 6.0 9.0 0.00 0.00 0.00 59 1026.0
20260502004113 47 342 6.0 8.0 0.00 0.00 0.00 59 1025.8
20260502003113 47 338 6.0 9.0 0.00 0.00 0.00 60 1026.0
20260502002113 46 355 9.0 10.0 0.00 0.00 0.00 61 1026.0
20260502001113 46 338 8.0 9.0 0.00 0.00 0.00 61 1026.1
20260502000113 46 340 6.0 8.0 0.00 0.00 0.00 60 1026.2
20260501235113 46 338 5.0 8.0 0.00 0.00 0.00 60 1026.3
20260501234113 46 342 5.0 6.0 0.00 0.00 0.00 60 1026.3
20260501233113 47 332 6.0 8.0 0.00 0.00 0.00 60 1026.3
20260501232113 47 331 5.0 8.0 0.00 0.00 0.00 61 1026.4